[[{"header":{"parameterUnit":"m.s-1","parameterCategory":1,"la1":30.2991,"la2":30.254,"lo1":-89.0895,"lo2":-89.0444,"dy":0.0017,"dx":0.0017,"nx":28,"ny":28,"refTime":"2023-10-26T09:00:00:Z","depth":0,"parameterNumber":2,"parameterNumberName":"U-component_of_WINDS"},"data":[0,0,0,0,0,0,0,0,0,0,0,0,0,0,0,0,0,0,0,0,0,0,0,0,0,0,0,0,0,0,0,0,0,0,0,0,0,0,0,0,0,0,0,0,0,0,0,0,0,0,0,0,0,0,0,0,0,0,-3.6572,-3.6573,0,-3.6637,-3.6637,-3.6638,-3.6587,-3.6585,-3.6583,-3.6581,-3.6648,-3.6652,-3.6655,0,0,0,0,0,0,0,0,0,0,0,0,0,-3.6409,-3.6412,-3.6572,-3.6573,-3.6573,-3.6637,-3.6637,-3.6638,-3.6588,-3.6585,-3.6582,-3.658,-3.6647,-3.6651,-3.6656,0,0,0,0,0,0,0,0,0,0,0,0,0,-3.6477,-3.6413,-3.6572,-3.6556,-3.6555,-3.6636,-3.6638,-3.6639,-3.6588,-3.6585,-3.6582,-3.6579,-3.6645,-3.6651,-3.6656,-3.6757,0,0,-3.6674,-3.6676,0,0,0,0,0,0,0,0,-3.6473,-3.6483,-3.6557,-3.6557,-3.6556,-3.6601,-3.6605,-3.6678,-3.6589,-3.6576,-3.6581,-3.6577,-3.6635,-3.6641,-3.6661,-3.676,-3.6763,-3.6674,-3.6678,-3.668,-3.6682,0,0,0,0,0,0,0,-3.6469,-3.648,-3.6597,-3.6558,-3.6558,-3.6547,-3.6553,-3.6618,-3.6623,-3.6577,-3.6573,-3.6581,-3.6634,-3.6655,-3.6662,-3.6764,-3.6674,-3.6679,-3.6683,-3.6685,-3.6956,-3.696,0,0,0,0,0,0,-3.6465,-3.6477,-3.6595,-3.6599,-3.6506,-3.6553,-3.6559,-3.659,-3.6622,-3.6624,-3.6584,-3.6579,-3.6647,-3.6655,-3.6664,-3.6788,-3.668,-3.6686,-3.6689,-3.6953,-3.6957,-3.6961,0,0,0,0,0,0,-3.6462,-3.6476,-3.6593,-3.6537,-3.6551,-3.6559,-3.6593,-3.6593,-3.6614,-3.6628,-3.6628,-3.6605,-3.6645,-3.6656,-3.6736,-3.6789,-3.6688,-3.6693,-3.6948,-3.6954,-3.6959,-3.7034,0,0,0,0,0,0,-3.6457,-3.6475,-3.6512,-3.6538,-3.6554,-3.6662,-3.6596,-3.6596,-3.6624,-3.6617,-3.6647,-3.6649,-3.6643,-3.6727,-3.6741,-3.6795,-3.6698,-3.6943,-3.6951,-3.6957,-3.7026,-3.7041,-3.7054,0,0,0,0,0,-3.6452,-3.6529,-3.6514,-3.6529,-3.66,-3.6665,-3.6674,-3.6666,-3.6628,-3.6666,-3.6677,-3.6648,-3.6781,-3.6736,-3.6751,-3.6808,-3.694,-3.6949,-3.6957,-3.702,-3.7038,-3.7053,0,0,0,0,0,0,-3.6508,-3.6532,-3.6516,-3.6604,-3.6633,-3.6656,-3.6704,-3.6684,-3.6724,-3.6717,-3.6705,-3.6712,-3.6797,-3.681,-3.6759,-3.691,-3.6855,-3.6867,-3.6898,-3.6915,-3.6928,-3.6924,-3.6703,0,0,0,0,0,-3.6531,-3.658,-3.6599,-3.6676,-3.6691,-3.6696,-3.6723,-3.6715,-3.6744,-3.6756,-3.6772,-3.6802,-3.6852,-3.6884,-3.693,-3.7029,-3.7037,-3.7076,-3.7089,-3.71,-3.7111,-3.7169,-3.7188,-3.6989,-3.6989,-3.6989,0,0,-3.6578,-3.6598,-3.6629,-3.6688,-3.6709,-3.6763,-3.6706,-3.6764,-3.6804,-3.6765,-3.6842,-3.6856,-3.6889,-3.698,-3.7021,-3.6994,-3.7168,-3.7111,-3.712,-3.7124,-3.718,-3.7199,-3.7215,-3.6995,-3.6994,-3.6993,0,0,-3.6692,-3.671,-3.6778,-3.6802,-3.6836,-3.6839,-3.6856,-3.6884,-3.6892,-3.6969,-3.6942,-3.6991,-3.7075,-3.7102,-3.7126,-3.7257,-3.7234,-3.7273,-3.7344,-3.7401,-3.7416,-3.743,-3.748,-3.7498,-3.7283,-3.7283,-3.7283,0,-3.6746,-3.6824,-3.6815,-3.6877,-3.6905,-3.6874,-3.6945,-3.6968,-3.7016,-3.7037,-3.7006,-3.7114,-3.7134,-3.7234,-3.7267,-3.7286,-3.7308,-3.7269,-3.7415,-3.7429,-3.7441,-3.7489,-3.7507,-3.7288,-3.7287,-3.7287,-3.7287,0,-3.6891,-3.6947,-3.6998,-3.7047,-3.7081,-3.7146,-3.7149,-3.7185,-3.7176,-3.7183,-3.7266,-3.729,-3.7342,-3.7365,-3.7354,-3.7465,-3.7447,-3.7416,-3.736,-3.7465,-3.751,-3.7528,-3.7295,-3.7293,-3.7292,-3.729,0,0,-3.7038,-3.7085,-3.7104,-3.7128,-3.7166,-3.721,-3.7277,-3.7329,-3.7361,-3.7397,-3.7454,-3.7529,-3.7502,-3.753,-3.7524,-3.7573,-3.7681,-3.7537,-3.7537,-3.7565,-3.7808,-3.7832,-3.7853,-3.7666,-3.7669,-3.7672,-3.7806,0,-3.7156,-3.727,-3.7267,-3.7375,-3.7429,-3.7403,-3.7462,-3.7494,-3.7504,-3.7553,-3.7564,-3.7619,-3.7577,-3.7595,-3.7643,-3.7657,-3.773,-3.7647,-3.7721,-3.7724,-3.7714,-3.7876,-3.79,-3.8025,-3.7823,-3.7826,-3.7828,0,-3.7306,-3.735,-3.7463,-3.7499,-3.7521,-3.7574,-3.7624,-3.767,-3.7707,-3.7712,-3.7747,-3.7734,-3.7805,-3.7748,-3.7847,-3.7792,-3.7823,-3.7835,-3.784,-3.7846,-3.7782,-3.7889,-3.8064,-3.8083,-3.7855,-3.7853,-3.7851,0,-3.7406,-3.7492,-3.7572,-3.7593,-3.7636,-3.7675,-3.7694,-3.7728,-3.7762,-3.7806,-3.7829,-3.7881,-3.791,-3.7952,-3.7955,-3.7913,-3.8057,-3.7999,-3.8065,-3.8065,-3.8095,-3.8093,-3.828,-3.8114,-3.8113,-3.8113,-3.8113,0,-3.7537,-3.7609,-3.7618,-3.7668,-3.7749,-3.7746,-3.7826,-3.7843,-3.7874,-3.7929,-3.791,-3.7962,-3.7962,-3.8016,-3.8019,-3.8103,-3.8116,-3.8123,-3.8124,-3.8126,-3.8125,-3.8145,-3.8137,-3.8118,-3.8117,-3.8116,-3.8115,0,-3.7661,-3.767,-3.7756,-3.7792,-3.7802,-3.7861,-3.7892,-3.7941,-3.7951,-3.8021,-3.8037,-3.8054,-3.8117,-3.8125,-3.8198,-3.82,-3.8302,-3.8292,-3.829,-3.8289,-3.8355,-3.8349,-3.8561,-3.859,-3.8404,-3.8406,-3.8407,0,-3.7744,-3.7799,-3.7842,-3.7877,-3.79,-3.7956,-3.7992,-3.7993,-3.8031,-3.8081,-3.8125,-3.8186,-3.8235,-3.8338,-3.8358,-3.8415,-3.8407,-3.8478,-3.8415,-3.8418,-3.8411,-3.8408,-3.8416,-3.849,-3.8492,-3.8493,-3.8495,0,-3.7893,-3.7896,-3.7947,-3.8002,-3.8045,-3.8088,-3.8128,-3.8159,-3.8166,-3.821,-3.8275,-3.8314,-3.839,-3.8453,-3.8511,-3.8533,-3.8517,-3.8515,-3.8533,-3.8536,-3.8534,-3.8539,-3.8324,-3.851,-3.8508,-3.8507,-3.8506,-3.8506,-3.8,-3.805,-3.8089,-3.8148,-3.818,-3.8219,-3.8268,-3.8287,-3.8341,-3.8404,-3.8402,-3.8475,-3.8516,-3.8592,-3.8619,-3.8678,-3.8654,-3.868,-3.8687,-3.8694,-3.8702,-3.8524,-3.8688,-3.8687,-3.8687,-3.8687,-3.8686,0,-3.815,-3.8175,-3.823,-3.8289,-3.8337,-3.8318,-3.8364,-3.8406,-3.847,-3.8509,-3.856,-3.8637,-3.8699,-3.8726,-3.8788,-3.883,-3.8825,-3.8847,-3.8844,-3.885,-3.8718,-3.8697,-3.885,-3.885,-3.885,-3.885,-3.885,-3.885,-3.8233,-3.8317,-3.8326,-3.8428,-3.8453,-3.8524,-3.8552,-3.859,-3.8623,-3.871,-3.8762,-3.878,-3.8816,-3.8881,-3.8939,-3.8946,-3.897,-3.8996,-3.9,-3.8875,-3.8859,-3.8843,-3.8823,-3.9001,-3.9001,-3.9127,-3.9129,-3.913]},{"header":{"parameterUnit":"m.s-1","parameterCategory":1,"la1":30.2991,"la2":30.254,"lo1":-89.0895,"lo2":-89.0444,"dy":0.0017,"dx":0.0017,"nx":28,"ny":28,"refTime":"2023-10-26T09:00:00:Z","depth":0,"parameterNumber":3,"parameterNumberName":"V-component_of_WINDS"},"data":[0,0,0,0,0,0,0,0,0,0,0,0,0,0,0,0,0,0,0,0,0,0,0,0,0,0,0,0,0,0,0,0,0,0,0,0,0,0,0,0,0,0,0,0,0,0,0,0,0,0,0,0,0,0,0,0,0,0,-0.2654,-0.2655,0,-0.2784,-0.2785,-0.2786,-0.2844,-0.2844,-0.2844,-0.2844,-0.2977,-0.2981,-0.2985,0,0,0,0,0,0,0,0,0,0,0,0,0,-0.2454,-0.2457,-0.2654,-0.2656,-0.2657,-0.2783,-0.2785,-0.2787,-0.2844,-0.2844,-0.2844,-0.2844,-0.2976,-0.298,-0.2985,0,0,0,0,0,0,0,0,0,0,0,0,0,-0.2558,-0.2459,-0.2654,-0.2701,-0.2706,-0.2783,-0.2785,-0.2787,-0.2844,-0.2844,-0.2844,-0.2844,-0.2975,-0.298,-0.2986,-0.3025,0,0,-0.3003,-0.3005,0,0,0,0,0,0,0,0,-0.2552,-0.2565,-0.2692,-0.2698,-0.2704,-0.2797,-0.2764,-0.2867,-0.2844,-0.2792,-0.2844,-0.2843,-0.2918,-0.2928,-0.2953,-0.3031,-0.3037,-0.3003,-0.3006,-0.3009,-0.301,0,0,0,0,0,0,0,-0.2545,-0.256,-0.2705,-0.2694,-0.2701,-0.2715,-0.2729,-0.2783,-0.2855,-0.2797,-0.2801,-0.2816,-0.2921,-0.2947,-0.2956,-0.3039,-0.3003,-0.3008,-0.3011,-0.3013,-0.3151,-0.3151,0,0,0,0,0,0,-0.253,-0.2554,-0.2701,-0.2709,-0.2626,-0.2719,-0.2735,-0.2768,-0.2854,-0.2867,-0.2816,-0.2818,-0.2938,-0.295,-0.2961,-0.3011,-0.3009,-0.3014,-0.3017,-0.3151,-0.3151,-0.3152,0,0,0,0,0,0,-0.2525,-0.2542,-0.2696,-0.2633,-0.2653,-0.2722,-0.2759,-0.277,-0.2797,-0.2869,-0.2882,-0.283,-0.2938,-0.2953,-0.3008,-0.3016,-0.3016,-0.3022,-0.315,-0.3151,-0.3151,-0.3111,0,0,0,0,0,0,-0.2519,-0.2541,-0.2557,-0.2633,-0.2656,-0.2741,-0.2759,-0.2773,-0.2806,-0.281,-0.2885,-0.2898,-0.2939,-0.2999,-0.3013,-0.3024,-0.3026,-0.315,-0.3151,-0.3151,-0.3112,-0.311,-0.3109,0,0,0,0,0,-0.2512,-0.2542,-0.2558,-0.2575,-0.2679,-0.2741,-0.2755,-0.2802,-0.2807,-0.2823,-0.2868,-0.2895,-0.3012,-0.3004,-0.3021,-0.3033,-0.315,-0.3151,-0.3151,-0.3113,-0.3111,-0.3109,0,0,0,0,0,0,-0.2468,-0.2553,-0.2572,-0.2627,-0.2676,-0.2751,-0.2774,-0.2799,-0.2849,-0.285,-0.2906,-0.2923,-0.2971,-0.3008,-0.2997,-0.3073,-0.3083,-0.3087,-0.3048,-0.3047,-0.3045,-0.3036,-0.3031,0,0,0,0,0,-0.2464,-0.2508,-0.258,-0.2622,-0.2645,-0.2705,-0.2734,-0.2765,-0.2819,-0.2841,-0.289,-0.2941,-0.2989,-0.302,-0.3068,-0.3117,-0.3132,-0.3133,-0.3131,-0.3129,-0.3133,-0.3157,-0.3158,-0.3154,-0.3154,-0.3154,0,0,-0.2458,-0.2509,-0.2534,-0.2614,-0.2656,-0.2699,-0.2722,-0.2768,-0.28,-0.2848,-0.2902,-0.2939,-0.2999,-0.3049,-0.3074,-0.3081,-0.3136,-0.313,-0.3128,-0.3133,-0.3158,-0.3159,-0.3159,-0.3154,-0.3154,-0.3154,0,0,-0.2468,-0.2512,-0.255,-0.2591,-0.2653,-0.2692,-0.27,-0.2771,-0.2797,-0.2851,-0.2886,-0.2924,-0.3007,-0.3047,-0.3079,-0.3098,-0.3123,-0.3112,-0.3104,-0.3127,-0.3127,-0.3128,-0.3133,-0.3134,-0.3114,-0.3114,-0.3114,0,-0.2453,-0.252,-0.2567,-0.261,-0.2642,-0.2685,-0.2722,-0.2759,-0.2835,-0.2856,-0.2862,-0.2963,-0.3007,-0.3066,-0.307,-0.3094,-0.3105,-0.3105,-0.3123,-0.3124,-0.3126,-0.3131,-0.3133,-0.3113,-0.3113,-0.3113,-0.3113,0,-0.2497,-0.2542,-0.2565,-0.2634,-0.2669,-0.2709,-0.2761,-0.2791,-0.2817,-0.2854,-0.2907,-0.296,-0.3018,-0.3034,-0.3062,-0.3096,-0.3098,-0.3113,-0.3124,-0.3123,-0.3129,-0.3132,-0.311,-0.3111,-0.3111,-0.3112,0,0,-0.2487,-0.2578,-0.2586,-0.2616,-0.2685,-0.2721,-0.2761,-0.2816,-0.284,-0.2888,-0.2923,-0.2988,-0.3001,-0.3037,-0.3068,-0.3089,-0.3098,-0.3101,-0.3104,-0.3098,-0.3135,-0.3123,-0.3125,-0.3114,-0.3114,-0.3115,-0.313,0,-0.2507,-0.2581,-0.2622,-0.2678,-0.2719,-0.2757,-0.2791,-0.2837,-0.2871,-0.291,-0.2948,-0.2993,-0.3008,-0.3029,-0.305,-0.3092,-0.3106,-0.3091,-0.3145,-0.3146,-0.3129,-0.3129,-0.3118,-0.3129,-0.3132,-0.3133,-0.3133,0,-0.2541,-0.2586,-0.2646,-0.2707,-0.2725,-0.2756,-0.2808,-0.2845,-0.2895,-0.2918,-0.2955,-0.2985,-0.3027,-0.3033,-0.309,-0.3079,-0.3102,-0.3125,-0.3127,-0.3134,-0.314,-0.3136,-0.3135,-0.3136,-0.3138,-0.3137,-0.3137,0,-0.2526,-0.2603,-0.2647,-0.2672,-0.2744,-0.2764,-0.2795,-0.2845,-0.2874,-0.2919,-0.2938,-0.2987,-0.3014,-0.3051,-0.3093,-0.3094,-0.3144,-0.3155,-0.3164,-0.3163,-0.3174,-0.3173,-0.3177,-0.3189,-0.3189,-0.3189,-0.3189,0,-0.2544,-0.2579,-0.2641,-0.2669,-0.2708,-0.2753,-0.279,-0.2824,-0.2867,-0.2901,-0.2936,-0.2967,-0.302,-0.3057,-0.309,-0.313,-0.3142,-0.3161,-0.317,-0.3158,-0.3156,-0.3176,-0.3176,-0.3189,-0.3189,-0.3189,-0.3189,0,-0.2536,-0.2579,-0.263,-0.2692,-0.2708,-0.2734,-0.2787,-0.2814,-0.2848,-0.289,-0.2902,-0.2956,-0.3,-0.3045,-0.3105,-0.3127,-0.3166,-0.3178,-0.3149,-0.3154,-0.316,-0.3158,-0.3176,-0.318,-0.319,-0.3189,-0.3189,0,-0.2545,-0.2572,-0.2635,-0.266,-0.2689,-0.2729,-0.2757,-0.2801,-0.283,-0.2886,-0.2906,-0.2952,-0.2992,-0.3061,-0.3105,-0.315,-0.3163,-0.3165,-0.317,-0.3156,-0.3161,-0.3159,-0.3161,-0.3164,-0.3164,-0.3164,-0.3163,0,-0.2555,-0.2574,-0.2614,-0.266,-0.2693,-0.2732,-0.2773,-0.279,-0.2841,-0.2871,-0.2916,-0.2946,-0.3006,-0.3051,-0.31,-0.3131,-0.3155,-0.3161,-0.3165,-0.3155,-0.3136,-0.3145,-0.3144,-0.3161,-0.3161,-0.3162,-0.3162,-0.3162,-0.2556,-0.258,-0.2627,-0.267,-0.2704,-0.2739,-0.2766,-0.2802,-0.284,-0.2892,-0.2915,-0.2959,-0.3004,-0.3073,-0.3102,-0.3136,-0.3143,-0.315,-0.3152,-0.3153,-0.3149,-0.313,-0.3146,-0.3146,-0.3146,-0.3146,-0.3146,0,-0.2568,-0.2598,-0.2637,-0.269,-0.2722,-0.274,-0.2784,-0.281,-0.2848,-0.2888,-0.2925,-0.2974,-0.3017,-0.3062,-0.3106,-0.3125,-0.3136,-0.3135,-0.3134,-0.314,-0.3141,-0.3133,-0.3124,-0.3124,-0.3124,-0.3124,-0.3124,-0.3124,-0.2578,-0.2619,-0.2642,-0.2699,-0.273,-0.2773,-0.2796,-0.2828,-0.2859,-0.2913,-0.2947,-0.2976,-0.3017,-0.3064,-0.3102,-0.3114,-0.3129,-0.3123,-0.3138,-0.3139,-0.3141,-0.3142,-0.3134,-0.3126,-0.3126,-0.3135,-0.3135,-0.3135]}]]